^^

..:: Storico WU ::..




Lo storico viene creato da WUnderground con i dati che la stazione Meteomincio invia al loro server. L' aggiornamento viene fatto ogni 5 minuti circa, tuttavia possono esserci intervalli pił ampi a causa di errori, interruzioni di servizio o problemi nell' invio tramite FTP.


Storico stazione MeteoMincio
Giorno Sommario per Marzo 12, 2022 Unità:  Inglese    Metrico   Entrambi
Giorno Settimana Mese Anno
  Max: Min: Media:
Temperatura: 51.8 °F 35.6 °F 43.3 °F
Dew Point: 33.8 °F 19.4 °F 27.1 °F
Umidità: 79% 36% 56%
Velocità vento: 14.9mph 1.9mph 6.8mph
Raffica: 23mph - -
Direzione- - East
Pressione: 30.4 in 30.3 in -
Precipitazioni: 0 in    
 
 
Tabulato Dati per Marzo 12, 2022
Ora Temperatura Dew Point Pressione Direzione Velocità vento Raffica Umidità Intensità pioggia (oraria) Info solare Situazione
00:04 41 °F 32 °F 30.4 in ENE 2.5 mph 3.7 mph 74% 0 in 0.00 W/m2 unknown
00:09 41 °F 32 °F 30.4 in ENE 2.5 mph 3.7 mph 74% 0 in 0.00 W/m2 unknown
00:14 39.2 °F 32 °F 30.4 in East 2.5 mph 3.7 mph 75% 0 in 0.00 W/m2 unknown
00:19 41 °F 32 °F 30.4 in East 2.5 mph 3.7 mph 74% 0 in 0.00 W/m2 unknown
00:24 41 °F 32 °F 30.4 in East 3.1 mph 6.2 mph 74% 0 in 0.00 W/m2 unknown
00:29 41 °F 32 °F 30.4 in East 3.1 mph 6.2 mph 74% 0 in 0.00 W/m2 unknown
00:34 41 °F 32 °F 30.4 in East 1.9 mph 6.2 mph 74% 0 in 0.00 W/m2 unknown
00:39 41 °F 33.8 °F 30.4 in ENE 1.9 mph 2.5 mph 75% 0 in 0.00 W/m2 unknown
00:44 41 °F 33.8 °F 30.4 in ENE 3.1 mph 3.7 mph 75% 0 in 0.00 W/m2 unknown
00:49 41 °F 33.8 °F 30.4 in East 3.7 mph 5 mph 75% 0 in 0.00 W/m2 unknown
00:54 41 °F 33.8 °F 30.4 in ESE 4.3 mph 5 mph 75% 0 in 0.00 W/m2 unknown
00:59 41 °F 33.8 °F 30.4 in East 4.3 mph 6.2 mph 75% 0 in 0.00 W/m2 unknown
01:04 41 °F 33.8 °F 30.4 in East 3.1 mph 6.2 mph 75% 0 in 0.00 W/m2 unknown
01:09 39.2 °F 32 °F 30.4 in ENE 4.3 mph 6.2 mph 76% 0 in 0.00 W/m2 unknown
01:14 39.2 °F 32 °F 30.4 in ENE 3.7 mph 6.2 mph 76% 0 in 0.00 W/m2 unknown
01:19 39.2 °F 32 °F 30.4 in ENE 4.3 mph 6.2 mph 76% 0 in 0.00 W/m2 unknown
01:24 39.2 °F 32 °F 30.4 in ENE 3.7 mph 6.2 mph 76% 0 in 0.00 W/m2 unknown
01:29 39.2 °F 32 °F 30.4 in ENE 4.3 mph 6.2 mph 76% 0 in 0.00 W/m2 unknown
01:34 39.2 °F 32 °F 30.4 in ENE 4.3 mph 6.8 mph 76% 0 in 0.00 W/m2 unknown
01:39 39.2 °F 32 °F 30.4 in ENE 3.7 mph 6.8 mph 76% 0 in 0.00 W/m2 unknown
01:44 39.2 °F 32 °F 30.4 in ENE 3.7 mph 6.2 mph 76% 0 in 0.00 W/m2 unknown
01:49 39.2 °F 32 °F 30.4 in ENE 4.3 mph 5 mph 76% 0 in 0.00 W/m2 unknown
01:54 39.2 °F 32 °F 30.4 in ENE 3.7 mph 5 mph 76% 0 in 0.00 W/m2 unknown
01:59 39.2 °F 32 °F 30.4 in ENE 3.7 mph 5 mph 76% 0 in 0.00 W/m2 unknown
02:04 39.2 °F 32 °F 30.4 in ENE 4.3 mph 5 mph 76% 0 in 0.00 W/m2 unknown
02:09 39.2 °F 32 °F 30.4 in ENE 3.7 mph 5 mph 76% 0 in 0.00 W/m2 unknown
02:14 39.2 °F 32 °F 30.4 in ENE 3.1 mph 5 mph 76% 0 in 0.00 W/m2 unknown
02:19 39.2 °F 32 °F 30.4 in ENE 3.1 mph 5 mph 77% 0 in 0.00 W/m2 unknown
02:24 39.2 °F 32 °F 30.4 in ENE 3.7 mph 5 mph 77% 0 in 0.00 W/m2 unknown
02:29 39.2 °F 32 °F 30.4 in ENE 3.1 mph 5 mph 77% 0 in 0.00 W/m2 unknown
02:34 39.2 °F 32 °F 30.4 in ENE 3.1 mph 5 mph 77% 0 in 0.00 W/m2 unknown
02:39 37.4 °F 32 °F 30.4 in ENE 3.1 mph 3.7 mph 78% 0 in 0.00 W/m2 unknown
02:44 37.4 °F 32 °F 30.4 in ENE 3.1 mph 3.7 mph 78% 0 in 0.00 W/m2 unknown
02:49 39.2 °F 32 °F 30.4 in ENE 3.7 mph 3.7 mph 77% 0 in 0.00 W/m2 unknown
02:54 39.2 °F 32 °F 30.4 in ENE 3.1 mph 4.3 mph 77% 0 in 0.00 W/m2 unknown
02:59 39.2 °F 32 °F 30.4 in ENE 3.7 mph 5 mph 77% 0 in 0.00 W/m2 unknown
03:04 39.2 °F 32 °F 30.4 in ENE 3.1 mph 5 mph 78% 0 in 0.00 W/m2 unknown
03:09 39.2 °F 32 °F 30.4 in East 3.7 mph 6.2 mph 78% 0 in 0.00 W/m2 unknown
03:14 37.4 °F 32 °F 30.4 in East 3.7 mph 6.2 mph 78% 0 in 0.00 W/m2 unknown
03:19 37.4 °F 32 °F 30.4 in East 4.3 mph 6.2 mph 78% 0 in 0.00 W/m2 unknown
03:24 37.4 °F 32 °F 30.4 in East 3.7 mph 6.2 mph 78% 0 in 0.00 W/m2 unknown
03:29 37.4 °F 32 °F 30.4 in East 3.1 mph 6.2 mph 79% 0 in 0.00 W/m2 unknown
03:34 37.4 °F 32 °F 30.4 in East 3.7 mph 6.2 mph 79% 0 in 0.00 W/m2 unknown
03:39 37.4 °F 32 °F 30.4 in East 5 mph 6.8 mph 79% 0 in 0.00 W/m2 unknown
03:44 39.2 °F 32 °F 30.4 in East 5 mph 6.8 mph 79% 0 in 0.00 W/m2 unknown
03:49 39.2 °F 32 °F 30.4 in East 5 mph 6.2 mph 78% 0 in 0.00 W/m2 unknown
03:54 39.2 °F 32 °F 30.4 in East 5 mph 6.2 mph 78% 0 in 0.00 W/m2 unknown
03:59 39.2 °F 32 °F 30.4 in East 5 mph 6.8 mph 78% 0 in 0.00 W/m2 unknown
04:04 39.2 °F 32 °F 30.4 in East 5 mph 6.8 mph 77% 0 in 0.00 W/m2 unknown
04:09 39.2 °F 32 °F 30.4 in East 5 mph 6.2 mph 77% 0 in 0.00 W/m2 unknown
04:14 39.2 °F 32 °F 30.4 in East 4.3 mph 6.2 mph 77% 0 in 0.00 W/m2 unknown
04:19 39.2 °F 32 °F 30.4 in East 4.3 mph 6.2 mph 77% 0 in 0.00 W/m2 unknown
04:24 39.2 °F 32 °F 30.4 in East 3.7 mph 6.2 mph 77% 0 in 0.00 W/m2 unknown
04:29 39.2 °F 32 °F 30.4 in ENE 3.1 mph 5 mph 78% 0 in 0.00 W/m2 unknown
04:34 39.2 °F 32 °F 30.4 in East 3.1 mph 5 mph 78% 0 in 0.00 W/m2 unknown
04:39 39.2 °F 32 °F 30.4 in East 3.7 mph 6.2 mph 77% 0 in 0.00 W/m2 unknown
04:44 39.2 °F 32 °F 30.4 in ENE 3.1 mph 6.2 mph 77% 0 in 0.00 W/m2 unknown
04:49 39.2 °F 32 °F 30.4 in East 3.1 mph 5 mph 77% 0 in 0.00 W/m2 unknown
04:54 39.2 °F 32 °F 30.4 in East 3.7 mph 5 mph 77% 0 in 0.00 W/m2 unknown
04:59 39.2 °F 32 °F 30.4 in East 4.3 mph 5 mph 77% 0 in 0.00 W/m2 unknown
05:04 39.2 °F 32 °F 30.4 in East 4.3 mph 6.2 mph 77% 0 in 0.00 W/m2 unknown
05:09 39.2 °F 32 °F 30.4 in East 4.3 mph 6.2 mph 77% 0 in 0.00 W/m2 unknown
05:14 39.2 °F 32 °F 30.4 in ENE 4.3 mph 6.2 mph 77% 0 in 0.00 W/m2 unknown
05:19 39.2 °F 32 °F 30.4 in ENE 3.1 mph 5 mph 77% 0 in 0.00 W/m2 unknown
05:24 39.2 °F 32 °F 30.4 in ENE 3.1 mph 5 mph 78% 0 in 0.00 W/m2 unknown
05:29 39.2 °F 32 °F 30.4 in ENE 4.3 mph 5 mph 78% 0 in 0.00 W/m2 unknown
05:34 37.4 °F 32 °F 30.4 in ENE 3.1 mph 5 mph 78% 0 in 0.00 W/m2 unknown
05:39 37.4 °F 32 °F 30.4 in ENE 3.1 mph 3.7 mph 78% 0 in 0.00 W/m2 unknown
05:44 37.4 °F 32 °F 30.4 in ENE 3.1 mph 3.7 mph 78% 0 in 0.00 W/m2 unknown
05:49 37.4 °F 32 °F 30.4 in ENE 3.1 mph 3.7 mph 78% 0 in 0.00 W/m2 unknown
05:54 37.4 °F 32 °F 30.4 in ENE 3.1 mph 3.7 mph 78% 0 in 0.00 W/m2 unknown
05:59 37.4 °F 32 °F 30.4 in ENE 4.3 mph 8.1 mph 78% 0 in 0.00 W/m2 unknown
06:04 37.4 °F 32 °F 30.4 in ENE 4.3 mph 8.1 mph 79% 0 in 0.00 W/m2 unknown
06:09 37.4 °F 32 °F 30.4 in ENE 4.3 mph 6.2 mph 79% 0 in 0.00 W/m2 unknown
06:14 37.4 °F 32 °F 30.4 in ENE 3.7 mph 5 mph 79% 0 in 0.00 W/m2 unknown
06:19 37.4 °F 32 °F 30.4 in ENE 3.1 mph 5 mph 79% 0 in 0.00 W/m2 unknown
06:24 37.4 °F 32 °F 30.4 in ENE 3.1 mph 5 mph 79% 0 in 0.00 W/m2 unknown
06:29 37.4 °F 32 °F 30.4 in ENE 4.3 mph 6.8 mph 78% 0 in 0.00 W/m2 unknown
06:34 37.4 °F 32 °F 30.4 in ENE 5 mph 6.8 mph 78% 0 in 0.00 W/m2 unknown
06:39 37.4 °F 32 °F 30.4 in ENE 4.3 mph 6.8 mph 78% 0 in 0.00 W/m2 unknown
06:44 37.4 °F 32 °F 30.4 in ENE 5.6 mph 8.1 mph 78% 0 in 0.00 W/m2 unknown
06:49 37.4 °F 32 °F 30.4 in ENE 5 mph 8.1 mph 78% 0 in 5.00 W/m2 unknown
06:54 37.4 °F 32 °F 30.4 in ENE 5 mph 6.8 mph 78% 0 in 9.00 W/m2 unknown
06:59 37.4 °F 32 °F 30.4 in ENE 5 mph 6.8 mph 78% 0 in 11.00 W/m2 unknown
07:04 37.4 °F 32 °F 30.4 in ENE 5 mph 6.8 mph 78% 0 in 14.00 W/m2 unknown
07:09 39.2 °F 32 °F 30.4 in ENE 6.8 mph 9.3 mph 78% 0 in 19.00 W/m2 unknown
07:14 39.2 °F 32 °F 30.4 in ENE 6.8 mph 9.3 mph 77% 0 in 25.00 W/m2 unknown
07:19 39.2 °F 32 °F 30.4 in ENE 6.2 mph 8.7 mph 76% 0 in 28.00 W/m2 unknown
07:24 39.2 °F 32 °F 30.4 in ENE 6.2 mph 8.7 mph 76% 0 in 37.00 W/m2 unknown
07:29 39.2 °F 32 °F 30.4 in ENE 6.8 mph 9.3 mph 75% 0 in 42.00 W/m2 unknown
07:34 39.2 °F 32 °F 30.4 in ENE 6.8 mph 10.6 mph 74% 0 in 42.00 W/m2 unknown
07:39 39.2 °F 32 °F 30.4 in ENE 8.7 mph 10.6 mph 72% 0 in 54.00 W/m2 unknown
07:44 39.2 °F 32 °F 30.4 in East 8.7 mph 13 mph 71% 0 in 72.00 W/m2 unknown
07:49 39.2 °F 30.2 °F 30.4 in East 8.1 mph 13 mph 70% 0 in 76.00 W/m2 unknown
07:54 41 °F 30.2 °F 30.4 in ENE 8.7 mph 13 mph 69% 0 in 88.00 W/m2 unknown
07:59 41 °F 30.2 °F 30.4 in East 9.3 mph 14.3 mph 68% 0 in 95.00 W/m2 unknown
08:04 41 °F 30.2 °F 30.4 in East 9.9 mph 14.3 mph 67% 0 in 95.00 W/m2 unknown
08:09 41 °F 30.2 °F 30.4 in East 9.9 mph 14.3 mph 66% 0 in 102.00 W/m2 unknown
08:14 41 °F 30.2 °F 30.4 in East 11.8 mph 14.9 mph 65% 0 in 104.00 W/m2 unknown
08:19 41 °F 30.2 °F 30.4 in East 8.7 mph 14.9 mph 64% 0 in 104.00 W/m2 unknown
08:24 41 °F 28.4 °F 30.4 in ENE 9.3 mph 13 mph 63% 0 in 111.00 W/m2 unknown
08:29 41 °F 28.4 °F 30.4 in East 12.4 mph 16.2 mph 62% 0 in 142.00 W/m2 unknown
08:34 41 °F 28.4 °F 30.4 in East 11.8 mph 16.2 mph 59% 0 in 165.00 W/m2 unknown
08:39 41 °F 28.4 °F 30.4 in East 12.4 mph 16.2 mph 59% 0 in 197.00 W/m2 unknown
08:44 41 °F 26.6 °F 30.4 in East 10.6 mph 16.2 mph 57% 0 in 195.00 W/m2 unknown
08:49 41 °F 26.6 °F 30.4 in East 13 mph 17.4 mph 56% 0 in 188.00 W/m2 unknown
08:54 41 °F 26.6 °F 30.4 in East 13.7 mph 17.4 mph 56% 0 in 202.00 W/m2 unknown
08:59 42.8 °F 26.6 °F 30.4 in East 14.3 mph 17.4 mph 54% 0 in 207.00 W/m2 unknown
09:04 42.8 °F 26.6 °F 30.4 in East 13 mph 17.4 mph 53% 0 in 216.00 W/m2 unknown
09:09 42.8 °F 26.6 °F 30.4 in ENE 13 mph 18 mph 52% 0 in 200.00 W/m2 unknown
09:14 42.8 °F 24.8 °F 30.4 in ENE 14.9 mph 18.6 mph 51% 0 in 207.00 W/m2 unknown
09:19 42.8 °F 24.8 °F 30.4 in ENE 13 mph 18.6 mph 51% 0 in 223.00 W/m2 unknown
09:24 42.8 °F 24.8 °F 30.4 in East 11.8 mph 18 mph 50% 0 in 209.00 W/m2 unknown
09:29 42.8 °F 24.8 °F 30.4 in East 11.8 mph 14.9 mph 49% 0 in 211.00 W/m2 unknown
09:34 42.8 °F 24.8 °F 30.4 in East 13 mph 18.6 mph 48% 0 in 229.00 W/m2 unknown
09:39 42.8 °F 24.8 °F 30.4 in East 11.8 mph 18 mph 48% 0 in 239.00 W/m2 unknown
09:44 44.6 °F 24.8 °F 30.4 in East 11.2 mph 14.9 mph 47% 0 in 262.00 W/m2 unknown
09:49 44.6 °F 24.8 °F 30.4 in ENE 13.7 mph 17.4 mph 46% 0 in 299.00 W/m2 unknown
09:54 44.6 °F 24.8 °F 30.4 in ENE 13 mph 16.8 mph 46% 0 in 330.00 W/m2 unknown
09:59 44.6 °F 24.8 °F 30.4 in East 13.7 mph 19.9 mph 46% 0 in 355.00 W/m2 unknown
10:04 46.4 °F 24.8 °F 30.4 in ENE 13.7 mph 19.9 mph 44% 0 in 475.00 W/m2 unknown
10:09 46.4 °F 24.8 °F 30.4 in ENE 14.3 mph 19.9 mph 44% 0 in 455.00 W/m2 unknown
10:14 46.4 °F 23 °F 30.4 in ENE 14.3 mph 19.9 mph 42% 0 in 441.00 W/m2 unknown
10:19 46.4 °F 24.8 °F 30.4 in ENE 14.3 mph 19.9 mph 43% 0 in 446.00 W/m2 unknown
10:24 46.4 °F 24.8 °F 30.4 in ENE 14.3 mph 18 mph 42% 0 in 468.00 W/m2 unknown
10:29 46.4 °F 23 °F 30.4 in ENE 12.4 mph 18.6 mph 41% 0 in 468.00 W/m2 unknown
10:34 46.4 °F 23 °F 30.4 in East 14.3 mph 23 mph 41% 0 in 501.00 W/m2 unknown
10:39 46.4 °F 23 °F 30.4 in East 13 mph 23 mph 40% 0 in 508.00 W/m2 unknown
10:44 46.4 °F 23 °F 30.4 in ENE 14.3 mph 18.6 mph 40% 0 in 483.00 W/m2 unknown
10:49 46.4 °F 23 °F 30.4 in East 9.9 mph 18 mph 38% 0 in 490.00 W/m2 unknown
10:54 46.4 °F 23 °F 30.4 in East 11.8 mph 16.2 mph 39% 0 in 538.00 W/m2 unknown
10:59 48.2 °F 23 °F 30.4 in ENE 11.2 mph 16.8 mph 39% 0 in 552.00 W/m2 unknown
11:04 48.2 °F 23 °F 30.4 in ENE 12.4 mph 18.6 mph 38% 0 in 552.00 W/m2 unknown
11:09 48.2 °F 23 °F 30.4 in ENE 12.4 mph 18 mph 37% 0 in 533.00 W/m2 unknown
11:14 48.2 °F 23 °F 30.4 in East 12.4 mph 16.2 mph 38% 0 in 566.00 W/m2 unknown
11:19 48.2 °F 23 °F 30.4 in East 8.7 mph 16.2 mph 38% 0 in 570.00 W/m2 unknown
11:24 48.2 °F 23 °F 30.4 in East 13 mph 17.4 mph 36% 0 in 578.00 W/m2 unknown
11:29 48.2 °F 23 °F 30.4 in East 13 mph 16.8 mph 37% 0 in 580.00 W/m2 unknown
11:34 48.2 °F 23 °F 30.4 in ESE 13 mph 16.2 mph 36% 0 in 589.00 W/m2 unknown
11:39 48.2 °F 23 °F 30.4 in East 11.8 mph 16.2 mph 37% 0 in 592.00 W/m2 unknown
11:44 48.2 °F 23 °F 30.4 in ENE 13 mph 16.2 mph 37% 0 in 596.00 W/m2 unknown
11:49 48.2 °F 23 °F 30.4 in East 12.4 mph 16.2 mph 36% 0 in 605.00 W/m2 unknown
11:54 48.2 °F 23 °F 30.4 in East 10.6 mph 16.2 mph 36% 0 in 610.00 W/m2 unknown
11:59 50 °F 23 °F 30.4 in East 10.6 mph 14.9 mph 36% 0 in 605.00 W/m2 unknown
12:04 50 °F 24.8 °F 30.4 in ESE 11.2 mph 17.4 mph 37% 0 in 598.00 W/m2 unknown
12:09 50 °F 24.8 °F 30.4 in East 9.3 mph 16.8 mph 37% 0 in 599.00 W/m2 unknown
12:14 50 °F 24.8 °F 30.4 in East 11.8 mph 14.9 mph 37% 0 in 613.00 W/m2 unknown
12:19 50 °F 24.8 °F 30.4 in East 13 mph 16.8 mph 37% 0 in 613.00 W/m2 unknown
12:24 50 °F 24.8 °F 30.4 in East 14.3 mph 17.4 mph 37% 0 in 577.00 W/m2 unknown
12:29 50 °F 26.6 °F 30.4 in East 9.9 mph 12.4 mph 39% 0 in 599.00 W/m2 unknown
12:34 50 °F 26.6 °F 30.4 in ESE 8.7 mph 14.9 mph 39% 0 in 612.00 W/m2 unknown
12:39 50 °F 24.8 °F 30.4 in ESE 11.8 mph 14.9 mph 37% 0 in 626.00 W/m2 unknown
12:44 50 °F 24.8 °F 30.4 in ESE 11.2 mph 14.9 mph 38% 0 in 626.00 W/m2 unknown
12:49 50 °F 24.8 °F 30.4 in ESE 10.6 mph 14.9 mph 38% 0 in 606.00 W/m2 unknown
12:54 50 °F 24.8 °F 30.4 in ESE 9.3 mph 14.9 mph 37% 0 in 605.00 W/m2 unknown
12:59 50 °F 24.8 °F 30.4 in East 11.2 mph 14.9 mph 37% 0 in 599.00 W/m2 unknown
13:04 50 °F 24.8 °F 30.4 in ESE 9.9 mph 14.9 mph 36% 0 in 598.00 W/m2 unknown
13:09 51.8 °F 24.8 °F 30.4 in East 13 mph 17.4 mph 37% 0 in 613.00 W/m2 unknown
13:14 51.8 °F 24.8 °F 30.4 in East 11.8 mph 16.8 mph 37% 0 in 599.00 W/m2 unknown
13:19 51.8 °F 24.8 °F 30.4 in ENE 11.8 mph 16.2 mph 36% 0 in 599.00 W/m2 unknown
13:24 51.8 °F 24.8 °F 30.4 in East 13.7 mph 17.4 mph 36% 0 in 575.00 W/m2 unknown
13:29 51.8 °F 24.8 °F 30.4 in East 10.6 mph 16.8 mph 36% 0 in 589.00 W/m2 unknown
13:34 51.8 °F 24.8 °F 30.4 in East 9.3 mph 14.3 mph 36% 0 in 603.00 W/m2 unknown
13:39 51.8 °F 26.6 °F 30.4 in East 9.3 mph 13 mph 37% 0 in 598.00 W/m2 unknown
13:44 51.8 °F 26.6 °F 30.4 in East 9.9 mph 14.3 mph 37% 0 in 584.00 W/m2 unknown
13:49 51.8 °F 26.6 °F 30.4 in East 12.4 mph 18.6 mph 37% 0 in 557.00 W/m2 unknown
13:54 51.8 °F 24.8 °F 30.4 in ESE 12.4 mph 18 mph 36% 0 in 547.00 W/m2 unknown
13:59 50 °F 24.8 °F 30.4 in East 13.7 mph 17.4 mph 37% 0 in 557.00 W/m2 unknown
14:04 51.8 °F 24.8 °F 30.4 in East 9.9 mph 16.8 mph 37% 0 in 548.00 W/m2 unknown
14:09 51.8 °F 26.6 °F 30.4 in ENE 8.7 mph 13 mph 37% 0 in 538.00 W/m2 unknown
14:14 51.8 °F 26.6 °F 30.4 in ESE 8.7 mph 13 mph 38% 0 in 515.00 W/m2 unknown
14:19 51.8 °F 26.6 °F 30.4 in ESE 8.7 mph 13 mph 38% 0 in 487.00 W/m2 unknown
14:24 51.8 °F 26.6 °F 30.3 in East 9.3 mph 13.7 mph 39% 0 in 490.00 W/m2 unknown
14:29 51.8 °F 26.6 °F 30.4 in ESE 11.8 mph 14.9 mph 39% 0 in 487.00 W/m2 unknown
14:34 51.8 °F 26.6 °F 30.4 in East 11.8 mph 14.9 mph 39% 0 in 466.00 W/m2 unknown
14:39 51.8 °F 26.6 °F 30.3 in ESE 10.6 mph 14.9 mph 40% 0 in 466.00 W/m2 unknown
14:44 51.8 °F 26.6 °F 30.3 in East 8.7 mph 13 mph 40% 0 in 454.00 W/m2 unknown
14:49 51.8 °F 26.6 °F 30.3 in ESE 8.7 mph 11.8 mph 39% 0 in 434.00 W/m2 unknown
14:54 51.8 °F 26.6 °F 30.3 in East 9.9 mph 13 mph 40% 0 in 417.00 W/m2 unknown
14:59 51.8 °F 28.4 °F 30.3 in ENE 10.6 mph 14.3 mph 40% 0 in 418.00 W/m2 unknown
15:04 51.8 °F 26.6 °F 30.3 in ENE 11.2 mph 14.3 mph 39% 0 in 424.00 W/m2 unknown
15:09 51.8 °F 26.6 °F 30.3 in East 8.1 mph 13 mph 39% 0 in 394.00 W/m2 unknown
15:14 51.8 °F 28.4 °F 30.3 in ENE 9.9 mph 13 mph 40% 0 in 378.00 W/m2 unknown
15:19 51.8 °F 26.6 °F 30.3 in ENE 8.7 mph 13 mph 37% 0 in 376.00 W/m2 unknown
15:24 51.8 °F 26.6 °F 30.3 in ENE 10.6 mph 13 mph 38% 0 in 341.00 W/m2 unknown
15:29 51.8 °F 26.6 °F 30.3 in ENE 11.8 mph 14.9 mph 37% 0 in 345.00 W/m2 unknown
15:34 51.8 °F 26.6 °F 30.3 in East 8.7 mph 14.9 mph 37% 0 in 343.00 W/m2 unknown
15:39 51.8 °F 26.6 °F 30.3 in ESE 9.3 mph 11.8 mph 37% 0 in 323.00 W/m2 unknown
15:44 51.8 °F 26.6 °F 30.3 in East 8.1 mph 11.8 mph 37% 0 in 316.00 W/m2 unknown
15:49 51.8 °F 26.6 °F 30.3 in East 10.6 mph 16.8 mph 38% 0 in 322.00 W/m2 unknown
15:54 51.8 °F 26.6 °F 30.3 in East 11.8 mph 17.4 mph 37% 0 in 316.00 W/m2 unknown
15:59 51.8 °F 24.8 °F 30.3 in ENE 11.2 mph 16.8 mph 36% 0 in 297.00 W/m2 unknown
16:04 51.8 °F 24.8 °F 30.3 in ENE 11.8 mph 16.2 mph 36% 0 in 283.00 W/m2 unknown
16:09 51.8 °F 24.8 °F 30.3 in East 8.7 mph 16.2 mph 36% 0 in 264.00 W/m2 unknown
16:14 51.8 °F 24.8 °F 30.3 in ESE 11.2 mph 14.9 mph 36% 0 in 258.00 W/m2 unknown
16:19 51.8 °F 24.8 °F 30.3 in East 11.2 mph 14.9 mph 36% 0 in 264.00 W/m2 unknown
16:24 51.8 °F 26.6 °F 30.3 in ESE 11.8 mph 14.3 mph 37% 0 in 260.00 W/m2 unknown
16:29 51.8 °F 24.8 °F 30.3 in East 9.9 mph 14.3 mph 36% 0 in 218.00 W/m2 unknown
16:34 50 °F 24.8 °F 30.3 in ESE 8.7 mph 14.3 mph 37% 0 in 199.00 W/m2 unknown
16:39 50 °F 26.6 °F 30.3 in ESE 9.3 mph 13 mph 38% 0 in 186.00 W/m2 unknown
16:44 50 °F 26.6 °F 30.3 in ENE 9.9 mph 14.3 mph 38% 0 in 171.00 W/m2 unknown
16:49 50 °F 26.6 °F 30.3 in East 10.6 mph 14.9 mph 39% 0 in 151.00 W/m2 unknown
16:54 50 °F 26.6 °F 30.3 in East 9.3 mph 14.9 mph 39% 0 in 137.00 W/m2 unknown
16:59 50 °F 26.6 °F 30.3 in East 10.6 mph 14.3 mph 39% 0 in 125.00 W/m2 unknown
17:04 50 °F 26.6 °F 30.3 in East 8.7 mph 14.3 mph 40% 0 in 111.00 W/m2 unknown
17:09 50 °F 26.6 °F 30.3 in East 9.3 mph 13 mph 41% 0 in 79.00 W/m2 unknown
17:14 50 °F 26.6 °F 30.3 in East 9.3 mph 13 mph 40% 0 in 63.00 W/m2 unknown
17:19 50 °F 26.6 °F 30.3 in East 6.8 mph 13 mph 40% 0 in 51.00 W/m2 unknown
17:24 48.2 °F 26.6 °F 30.3 in East 7.5 mph 9.3 mph 40% 0 in 46.00 W/m2 unknown
17:29 48.2 °F 26.6 °F 30.3 in ESE 6.2 mph 8.7 mph 41% 0 in 40.00 W/m2 unknown
17:34 48.2 °F 26.6 °F 30.3 in ESE 8.7 mph 10.6 mph 41% 0 in 35.00 W/m2 unknown
17:39 48.2 °F 24.8 °F 30.3 in East 8.1 mph 9.9 mph 41% 0 in 30.00 W/m2 unknown
17:44 48.2 °F 26.6 °F 30.3 in East 6.2 mph 8.7 mph 42% 0 in 26.00 W/m2 unknown
17:49 48.2 °F 24.8 °F 30.3 in East 3.1 mph 6.2 mph 42% 0 in 23.00 W/m2 unknown
17:54 48.2 °F 26.6 °F 30.3 in East 3.7 mph 6.2 mph 43% 0 in 19.00 W/m2 unknown
17:59 46.4 °F 26.6 °F 30.3 in East 3.7 mph 6.2 mph 43% 0 in 16.00 W/m2 unknown
18:04 46.4 °F 24.8 °F 30.3 in East 3.1 mph 6.2 mph 43% 0 in 12.00 W/m2 unknown
18:09 46.4 °F 26.6 °F 30.3 in East 3.1 mph 5 mph 45% 0 in 11.00 W/m2 unknown
18:14 46.4 °F 26.6 °F 30.3 in East 4.3 mph 6.2 mph 45% 0 in 5.00 W/m2 unknown
18:19 46.4 °F 24.8 °F 30.3 in East 4.3 mph 6.2 mph 44% 0 in 0.00 W/m2 unknown
18:24 46.4 °F 26.6 °F 30.3 in East 3.7 mph 6.2 mph 45% 0 in 0.00 W/m2 unknown
18:29 46.4 °F 24.8 °F 30.3 in East 4.3 mph 6.8 mph 45% 0 in 0.00 W/m2 unknown
18:34 46.4 °F 24.8 °F 30.3 in East 4.3 mph 6.8 mph 45% 0 in 0.00 W/m2 unknown
18:39 44.6 °F 24.8 °F 30.3 in East 4.3 mph 6.2 mph 46% 0 in 0.00 W/m2 unknown
18:44 44.6 °F 24.8 °F 30.3 in East 5 mph 6.8 mph 46% 0 in 0.00 W/m2 unknown
18:49 44.6 °F 24.8 °F 30.3 in East 5 mph 6.8 mph 47% 0 in 0.00 W/m2 unknown
18:54 44.6 °F 24.8 °F 30.3 in East 4.3 mph 6.8 mph 47% 0 in 0.00 W/m2 unknown
18:59 44.6 °F 24.8 °F 30.3 in East 5.6 mph 6.8 mph 47% 0 in 0.00 W/m2 unknown
19:04 44.6 °F 24.8 °F 30.3 in East 5 mph 6.8 mph 47% 0 in 0.00 W/m2 unknown
19:09 44.6 °F 24.8 °F 30.3 in East 5 mph 6.8 mph 47% 0 in 0.00 W/m2 unknown
19:14 44.6 °F 24.8 °F 30.3 in East 5 mph 6.8 mph 47% 0 in 0.00 W/m2 unknown
19:19 44.6 °F 24.8 °F 30.3 in East 5 mph 6.8 mph 47% 0 in 0.00 W/m2 unknown
19:24 42.8 °F 24.8 °F 30.3 in East 5.6 mph 6.8 mph 48% 0 in 0.00 W/m2 unknown
19:29 42.8 °F 24.8 °F 30.3 in East 4.3 mph 6.8 mph 48% 0 in 0.00 W/m2 unknown
19:34 42.8 °F 24.8 °F 30.3 in East 5 mph 6.2 mph 49% 0 in 0.00 W/m2 unknown
19:39 42.8 °F 24.8 °F 30.3 in East 3.1 mph 5 mph 50% 0 in 0.00 W/m2 unknown
19:44 42.8 °F 24.8 °F 30.3 in East 1.9 mph 5 mph 51% 0 in 0.00 W/m2 unknown
19:49 42.8 °F 24.8 °F 30.3 in East 1.9 mph 3.7 mph 52% 0 in 0.00 W/m2 unknown
19:54 42.8 °F 26.6 °F 30.3 in ESE 3.1 mph 3.7 mph 53% 0 in 0.00 W/m2 unknown
19:59 41 °F 26.6 °F 30.3 in ESE 2.5 mph 3.7 mph 54% 0 in 0.00 W/m2 unknown
20:04 41 °F 26.6 °F 30.3 in ESE 2.5 mph 3.7 mph 55% 0 in 0.00 W/m2 unknown
20:09 41 °F 26.6 °F 30.4 in ESE 3.1 mph 5 mph 55% 0 in 0.00 W/m2 unknown
20:14 41 °F 26.6 °F 30.4 in ESE 2.5 mph 5 mph 55% 0 in 0.00 W/m2 unknown
20:19 41 °F 26.6 °F 30.4 in ESE 3.7 mph 3.7 mph 55% 0 in 0.00 W/m2 unknown
20:24 41 °F 26.6 °F 30.4 in ESE 3.7 mph 5 mph 55% 0 in 0.00 W/m2 unknown
20:29 41 °F 26.6 °F 30.4 in ESE 3.1 mph 5 mph 55% 0 in 0.00 W/m2 unknown
20:34 41 °F 26.6 °F 30.4 in ESE 2.5 mph 3.7 mph 55% 0 in 0.00 W/m2 unknown
20:39 41 °F 24.8 °F 30.4 in East 2.5 mph 3.7 mph 55% 0 in 0.00 W/m2 unknown
20:44 41 °F 24.8 °F 30.4 in East 2.5 mph 3.7 mph 55% 0 in 0.00 W/m2 unknown
20:49 41 °F 24.8 °F 30.4 in East 2.5 mph 5 mph 54% 0 in 0.00 W/m2 unknown
20:54 41 °F 24.8 °F 30.4 in East 2.5 mph 5 mph 53% 0 in 0.00 W/m2 unknown
20:59 41 °F 24.8 °F 30.4 in ESE 1.9 mph 2.5 mph 53% 0 in 0.00 W/m2 unknown
21:04 39.2 °F 24.8 °F 30.4 in East 1.9 mph 2.5 mph 53% 0 in 0.00 W/m2 unknown
21:09 39.2 °F 24.8 °F 30.4 in East 1.9 mph 2.5 mph 55% 0 in 0.00 W/m2 unknown
21:14 39.2 °F 24.8 °F 30.4 in East 1.9 mph 2.5 mph 55% 0 in 0.00 W/m2 unknown
21:19 39.2 °F 23 °F 30.4 in East 1.9 mph 3.7 mph 54% 0 in 0.00 W/m2 unknown
21:24 39.2 °F 24.8 °F 30.4 in East 1.9 mph 3.7 mph 55% 0 in 0.00 W/m2 unknown
21:29 39.2 °F 24.8 °F 30.4 in East 2.5 mph 3.7 mph 55% 0 in 0.00 W/m2 unknown
21:34 39.2 °F 23 °F 30.4 in ENE 2.5 mph 3.7 mph 55% 0 in 0.00 W/m2 unknown
21:39 39.2 °F 23 °F 30.4 in ENE 2.5 mph 3.7 mph 55% 0 in 0.00 W/m2 unknown
21:44 37.4 °F 23 °F 30.4 in NE 2.5 mph 3.7 mph 55% 0 in 0.00 W/m2 unknown
21:49 37.4 °F 23 °F 30.4 in NE 2.5 mph 3.7 mph 55% 0 in 0.00 W/m2 unknown
21:54 39.2 °F 23 °F 30.4 in ENE 2.5 mph 3.7 mph 53% 0 in 0.00 W/m2 unknown
21:59 39.2 °F 21.2 °F 30.4 in ENE 3.7 mph 5 mph 51% 0 in 0.00 W/m2 unknown
22:04 39.2 °F 21.2 °F 30.4 in ENE 3.1 mph 5 mph 50% 0 in 0.00 W/m2 unknown
22:09 39.2 °F 21.2 °F 30.4 in ENE 3.1 mph 3.7 mph 50% 0 in 0.00 W/m2 unknown
22:14 39.2 °F 21.2 °F 30.4 in ENE 4.3 mph 5 mph 50% 0 in 0.00 W/m2 unknown
22:19 37.4 °F 21.2 °F 30.4 in ENE 4.3 mph 6.2 mph 49% 0 in 0.00 W/m2 unknown
22:24 37.4 °F 21.2 °F 30.4 in East 5 mph 6.2 mph 49% 0 in 0.00 W/m2 unknown
22:29 37.4 °F 21.2 °F 30.4 in ENE 3.7 mph 6.2 mph 49% 0 in 0.00 W/m2 unknown
22:34 37.4 °F 19.4 °F 30.4 in ENE 3.7 mph 5 mph 48% 0 in 0.00 W/m2 unknown
22:39 37.4 °F 19.4 °F 30.4 in ENE 3.7 mph 5 mph 48% 0 in 0.00 W/m2 unknown
22:44 37.4 °F 19.4 °F 30.4 in ENE 4.3 mph 5 mph 49% 0 in 0.00 W/m2 unknown
22:49 37.4 °F 19.4 °F 30.4 in ENE 3.7 mph 5 mph 49% 0 in 0.00 W/m2 unknown
22:54 37.4 °F 19.4 °F 30.4 in ENE 3.7 mph 5 mph 49% 0 in 0.00 W/m2 unknown
22:59 37.4 °F 19.4 °F 30.4 in ENE 3.7 mph 3.7 mph 50% 0 in 0.00 W/m2 unknown
23:04 37.4 °F 19.4 °F 30.4 in ENE 3.1 mph 3.7 mph 50% 0 in 0.00 W/m2 unknown
23:09 37.4 °F 19.4 °F 30.4 in ENE 3.1 mph 3.7 mph 51% 0 in 0.00 W/m2 unknown
23:14 37.4 °F 19.4 °F 30.4 in NE 3.1 mph 5 mph 51% 0 in 0.00 W/m2 unknown
23:19 37.4 °F 21.2 °F 30.4 in NE 3.7 mph 5 mph 53% 0 in 0.00 W/m2 unknown
23:24 37.4 °F 21.2 °F 30.4 in NE 3.1 mph 5 mph 53% 0 in 0.00 W/m2 unknown
23:29 35.6 °F 21.2 °F 30.4 in NE 3.1 mph 3.7 mph 55% 0 in 0.00 W/m2 unknown
23:34 35.6 °F 21.2 °F 30.4 in NE 3.1 mph 3.7 mph 55% 0 in 0.00 W/m2 unknown
23:39 35.6 °F 21.2 °F 30.4 in NE 3.1 mph 3.7 mph 56% 0 in 0.00 W/m2 unknown
23:44 35.6 °F 21.2 °F 30.4 in NE 3.1 mph 3.7 mph 56% 0 in 0.00 W/m2 unknown
23:49 35.6 °F 21.2 °F 30.4 in NE 2.5 mph 3.7 mph 56% 0 in 0.00 W/m2 unknown
23:54 35.6 °F 21.2 °F 30.4 in NE 2.5 mph 3.7 mph 57% 0 in 0.00 W/m2 unknown
23:59 35.6 °F 21.2 °F 30.4 in NE 2.5 mph 3.7 mph 57% 0 in 0.00 W/m2 unknown
Stazione Meteorologica MeteoMincio Rivalta s/M (MN)
Con i complimenti di Weather Underground - 4 mb



METEO PILLOLE
Maggior quantità di pioggia caduta in 72 ore
Cratère Commerson (2310 m) - Isola di Réunion
Tra il 24 e 26 febbraio 2007 caddero 3930mm di pioggia.
Share

Non seguire questo link o sarai bannato dal sito!